Total_Precipitation_Accumulation
2.28 2.25 2.22 2.24 2.14 2.24 2.29 2.24 1.99 1.80 1.69 1.54 1.36 1.38 1.49 1.47 1.54 1.63 1.88 1.96 1.86 2.05 2.47 2.82 2.84 2.84 2.82 2.73 2.65 2.59 2.47 2.43 2.30 2.09 1.79 1.61 1.56 1.44 1.39 1.38 1.42 1.41 1.35
2.64 2.62 2.72 2.70 2.44 2.43 2.52 2.60 2.47 2.25 1.97 1.79 1.60 1.57 1.60 1.57 1.63 1.76 1.94 2.08 2.02 1.98 2.34 2.81 3.05 3.19 3.19 3.18 3.02 2.75 2.56 2.46 2.41 2.29 2.11 1.87 1.73 1.62 1.56 1.49 1.45 1.39 1.34
2.94 2.94 3.09 3.08 2.75 2.66 2.79 2.87 2.83 2.70 2.30 2.01 1.90 1.88 1.85 1.88 1.82 1.90 2.08 2.21 2.18 2.13 2.31 2.47 2.69 2.90 3.05 3.18 3.21 3.05 2.83 2.58 2.42 2.34 2.33 2.24 2.04 1.84 1.69 1.60 1.56 1.47 1.37
3.01 3.10 3.03 2.88 2.82 2.88 3.12 3.31 3.24 3.14 2.87 2.59 2.38 2.12 1.94 1.93 1.89 2.04 2.14 2.22 2.49 2.43 2.35 2.18 2.27 2.50 2.76 3.07 3.32 3.35 3.23 3.00 2.69 2.49 2.42 2.34 2.17 1.94 1.75 1.62 1.60 1.54 1.47
3.15 3.30 3.33 3.26 3.19 3.21 3.29 3.19 3.34 3.19 3.23 3.02 2.57 2.33 2.11 2.01 2.06 2.14 2.21 2.22 2.35 2.49 2.47 2.24 2.15 2.28 2.43 2.76 3.01 3.30 3.41 3.30 3.03 2.76 2.59 2.47 2.31 2.12 1.94 1.81 1.69 1.62 1.54
3.44 3.57 3.53 3.58 3.65 3.70 3.53 3.44 3.46 3.26 3.10 3.01 2.64 2.44 2.28 2.12 2.10 2.09 2.04 2.08 2.18 2.14 2.22 2.22 2.24 2.10 2.20 2.36 2.60 3.00 3.41 3.51 3.41 3.17 2.97 2.82 2.55 2.27 2.05 1.95 1.85 1.77 1.71
4.05 4.06 4.09 4.07 3.94 3.85 3.70 3.53 3.42 3.31 3.07 2.87 2.81 2.49 2.12 1.85 1.77 1.73 1.78 1.86 1.86 1.86 1.97 2.16 2.25 2.18 2.03 2.01 2.18 2.63 3.21 3.51 3.52 3.39 3.23 3.13 2.83 2.46 2.20 2.03 1.93 1.84 1.78
4.75 4.54 4.50 4.30 4.01 3.82 3.68 3.49 3.35 3.19 2.92 2.77 2.71 2.68 2.25 1.91 1.59 1.41 1.50 1.51 1.57 1.73 1.83 1.81 1.86 1.87 1.81 1.83 1.77 2.05 2.35 2.63 2.93 3.16 3.27 3.18 2.97 2.71 2.46 2.31 2.22 2.14 2.04
4.80 4.56 4.29 4.16 3.98 3.81 3.63 3.52 3.39 3.26 3.00 2.80 2.67 2.80 2.63 2.27 1.85 1.64 1.48 1.48 1.56 1.63 1.64 1.62 1.60 1.59 1.63 1.71 1.73 1.81 1.98 2.12 2.38 2.67 2.92 2.96 2.88 2.73 2.60 2.53 2.50 2.50 2.47
4.45 4.05 3.84 3.86 3.73 3.52 3.31 3.06 2.94 2.90 2.81 2.69 2.61 2.49 2.46 2.38 2.19 1.95 1.73 1.73 1.76 1.72 1.65 1.62 1.68 1.74 1.74 1.81 1.80 1.68 1.67 1.72 1.93 2.14 2.41 2.54 2.52 2.51 2.53 2.65 2.76 2.86 2.86
3.88 3.61 3.43 3.50 3.39 3.15 2.93 2.67 2.44 2.33 2.31 2.37 2.40 2.36 2.29 2.23 2.06 1.93 1.82 1.74 1.73 1.70 1.65 1.61 1.65 1.73 1.74 1.69 1.65 1.61 1.63 1.61 1.71 1.86 2.01 2.23 2.36 2.43 2.50 2.62 2.75 2.84 2.92
3.28 2.96 2.69 2.60 2.52 2.37 2.26 2.19 2.11 2.05 2.02 2.09 2.13 2.07 2.05 2.05 2.01 1.99 1.91 1.74 1.73 1.80 1.70 1.57 1.49 1.47 1.50 1.55 1.56 1.69 1.61 1.59 1.65 1.71 1.68 1.69 1.85 2.06 2.25 2.39 2.46 2.61 2.79
2.62 2.31 2.10 1.98 1.93 1.91 1.87 1.86 1.85 1.80 1.75 1.78 1.79 1.79 1.78 1.73 1.76 1.89 2.02 1.98 1.87 1.75 1.69 1.60 1.44 1.40 1.39 1.42 1.57 1.70 1.56 1.49 1.54 1.56 1.45 1.39 1.44 1.58 1.69 1.85 2.03 2.20 2.40
2.07 1.95 1.80 1.67 1.62 1.66 1.67 1.71 1.64 1.54 1.48 1.48 1.45 1.48 1.52 1.49 1.60 1.78 1.92 2.11 2.10 1.86 1.63 1.54 1.45 1.38 1.39 1.42 1.58 1.61 1.43 1.35 1.32 1.37 1.37 1.30 1.26 1.27 1.31 1.39 1.50 1.60 1.77
1.61 1.58 1.55 1.50 1.41 1.37 1.33 1.30 1.28 1.27 1.31 1.32 1.27 1.27 1.30 1.32 1.42 1.55 1.70 1.94 2.14 2.03 1.72 1.48 1.47 1.43 1.38 1.46 1.66 1.41 1.30 1.32 1.20 1.12 1.12 1.11 1.12 1.14 1.13 1.10 1.12 1.18 1.27
1.25 1.27 1.22 1.19 1.22 1.23 1.15 1.09 1.06 1.09 1.12 1.17 1.20 1.14 1.13 1.14 1.19 1.26 1.38 1.54 1.79 1.94 1.79 1.46 1.39 1.31 1.26 1.24 1.48 1.29 1.29 1.31 1.10 0.96 0.91 0.91 0.94 0.99 0.99 0.94 0.96 1.00 1.05
1.07 1.05 1.03 1.01 1.00 1.00 0.98 1.02 1.00 1.02 1.07 1.09 1.09 1.08 1.07 1.09 1.13 1.11 1.18 1.30 1.46 1.66 1.77 1.59 1.43 1.33 1.28 1.31 1.34 1.22 1.15 1.07 0.99 0.98 0.85 0.80 0.81 0.88 0.89 0.86 0.88 0.91 0.93
0.95 0.95 0.97 0.92 0.84 0.82 0.89 0.96 0.98 0.96 1.04 1.04 1.04 1.08 1.06 1.08 1.09 1.07 1.12 1.18 1.34 1.55 1.70 1.74 1.57 1.43 1.36 1.31 1.29 1.20 0.99 0.91 0.93 1.04 0.90 0.80 0.75 0.75 0.83 0.80 0.79 0.83 0.89
0.92 0.91 0.87 0.85 0.83 0.79 0.81 0.82 0.83 0.84 0.90 0.97 1.00 1.06 1.08 1.10 1.08 1.07 1.11 1.16 1.29 1.42 1.59 1.66 1.59 1.49 1.42 1.34 1.38 1.26 1.12 1.18 1.01 1.01 0.93 0.86 0.80 0.79 1.00 1.01 0.79 0.75 0.80
0.84 0.82 0.77 0.76 0.81 0.80 0.72 0.67 0.69 0.73 0.81 0.84 0.85 0.96 1.02 1.04 1.03 1.09 1.12 1.16 1.25 1.41 1.52 1.57 1.50 1.41 1.38 1.37 1.43 1.43 1.36 1.31 1.20 0.96 0.97 0.91 0.88 0.90 1.22 1.71 1.19 0.87 0.82
0.79 0.79 0.74 0.69 0.74 0.72 0.65 0.66 0.66 0.67 0.73 0.73 0.75 0.82 0.87 0.88 0.87 0.93 0.95 1.05 1.18 1.34 1.43 1.50 1.47 1.41 1.35 1.44 1.46 1.40 1.36 1.35 1.23 1.09 1.08 0.99 1.12 1.40 1.90 2.51 2.02 1.37 1.12
0.86 0.82 0.76 0.71 0.71 0.66 0.65 0.61 0.59 0.62 0.69 0.75 0.81 0.82 0.76 0.76 0.72 0.69 0.75 0.85 1.02 1.23 1.41 1.49 1.44 1.42 1.36 1.40 1.50 1.48 1.46 1.47 1.43 1.18 1.13 1.11 1.34 2.06 2.70 3.00 2.54 1.71 1.37
0.97 0.87 0.77 0.74 0.71 0.64 0.57 0.48 0.47 0.53 0.68 0.80 0.86 0.84 0.72 0.68 0.77 0.76 0.76 0.79 0.92 1.05 1.27 1.49 1.54 1.42 1.39 1.44 1.57 1.63 1.56 1.54 1.50 1.29 1.31 1.35 1.57 2.37 2.63 2.75 2.55 1.80 1.48
0.91 0.85 0.78 0.73 0.68 0.52 0.46 0.44 0.46 0.50 0.59 0.65 0.68 0.75 0.83 0.85 0.78 0.79 0.78 0.88 0.97 1.07 1.15 1.28 1.46 1.39 1.34 1.42 1.53 1.56 1.51 1.45 1.38 1.28 1.31 1.48 1.68 2.21 2.22 2.33 2.37 1.86 1.55
0.87 0.79 0.72 0.69 0.65 0.52 0.48 0.46 0.48 0.53 0.58 0.55 0.51 0.56 0.63 0.67 0.68 0.75 0.84 1.00 1.04 1.15 1.17 1.33 1.36 1.30 1.30 1.33 1.28 1.31 1.53 1.64 1.54 1.29 1.20 1.37 1.58 1.88 1.93 2.02 1.97 1.80 1.62
0.81 0.67 0.60 0.60 0.57 0.56 0.50 0.44 0.43 0.47 0.55 0.52 0.55 0.61 0.61 0.54 0.58 0.71 0.88 1.08 1.22 1.26 1.34 1.52 1.50 1.48 1.39 1.35 1.24 1.25 1.53 1.72 1.67 1.43 1.18 1.25 1.40 1.57 1.79 1.78 1.65 1.55 1.61